Regional Weather Roundup
Issued by NWS

Home | Current Version | Previous Version | Text Only | Print | Product List | Glossary Off
Versions: 1 2 3 4 5 6 7 8 9 10 11 12 13 14 15 16 17 18 19 20 21 22 23 24 25 26 27 28 29 30 31 32 33 34 35 36 37 38 39 40 41 42 43 44 45 46 47 48 49 50

000
ASUS45 KCYS 011110
RWRWY

WYOMING REGIONAL WEATHER ROUNDUP
NATIONAL WEATHER SERVICE CHEYENNE WY
500 AM MDT MON SEP 01 2014

NOTE:  "FAIR" INDICATES FEW OR NO CLOUDS BELOW 12,000 FEET
WITH NO SIGNIFICANT WEATHER AND/OR OBSTRUCTIONS TO VISIBILITY.

WYZ001-011200-
YELLOWSTONE NATIONAL PARK

CITY           SKY/WX    TMP DP  RH WIND       PRES   REMARKS
LK YELLOWSTONE   N/A     38  37  97 CALM      30.14S
W YELLOWSTONE  NOT AVBL

$$
WYZ002>013-054>058-071-098>099-011200-
NORTHERN WYOMING

CITY           SKY/WX    TMP DP  RH WIND       PRES   REMARKS
JACKSON        PTCLDY    36  36 100 N8        30.10S WCI  29
CODY           CLOUDY    54  43  66 SW5       30.00R
GREYBULL       MOCLDY    53  48  83 E5        29.95F
WORLAND        MOCLDY    52  48  86 CALM      29.97S
SHERIDAN       CLOUDY    54  42  64 NW6       29.95F
BUFFALO        MOCLDY    52  41  66 N3        30.00R
GILLETTE       MOCLDY    49  43  80 CALM      29.96S
HULETT         FAIR      46  43  87 MISG      29.96
NEWCASTLE      FAIR      45  45 100 N7        29.97

$$
WYZ014>020-022>026-101>103-011200-
CENTRAL WYOMING

CITY           SKY/WX    TMP DP  RH WIND       PRES   REMARKS
BIG PINEY      PTCLDY    35  33  92 E7        30.13S WCI  29
PINEDALE       MOSUNNY   32  32 100 W7        30.14R WCI  26
DUBOIS         FAIR      36  32  87 W13       30.08S WCI  27
LANDER         MOCLDY    49  39  68 W5        30.01F
RIVERTON       MOCLDY    49  36  61 W9        30.02F
CASPER         PTCLDY    45  42  89 SW3       30.01F
DOUGLAS        MOCLDY    45  44  97 CALM      30.02S

$$
WYZ021-027>030-104>119-011200-
SOUTHERN WYOMING

CITY           SKY/WX    TMP DP  RH WIND       PRES   REMARKS
EVANSTON       CLEAR     45  30  55 S8        30.14S
KEMMERER       MOSUNNY   37  34  87 N8        30.14S WCI  31
FORT BRIDGER   FAIR      49  30  48 SW9       30.15F
ROCK SPRINGS   PTCLDY    45  32  60 S7        30.12F
DIXON          FAIR      43  38  83 CALM      30.15F
RAWLINS        MOCLDY    46  36  68 SW6       30.10S
SARATOGA       FAIR      39  34  81 E6        30.13S WCI  35
LARAMIE        PTCLDY    41  34  76 SW5       30.10F
CHEYENNE       PTCLDY    44  40  85 W6        30.07S
TORRINGTON     CLEAR     48  47  96 CALM      29.98F
PINE BLUFFS    FAIR      43  41  93 S3        30.05R

$$



USA.gov is the U.S. government's official web portal to all federal, state and local government web resources and services.